Regional Weather Roundup
Issued by NWS

Home | Current Version | Previous Version | Text Only | Print | Product List | Glossary On
Versions: 1 2 3 4 5 6 7 8 9 10 11 12 13 14 15 16 17 18 19 20 21 22 23 24 25 26 27 28 29 30 31 32 33 34 35 36 37 38 39 40 41 42 43 44 45 46 47 48 49 50
000
ASUS44 KFWD 290515
RWRTX
NORTH TEXAS HOURLY WEATHER ROUNDUP
NATIONAL WEATHER SERVICE FORT WORTH TX
1100 PM CST WED JAN 28 2015

NOTE: "FAIR" INDICATES FEW OR NO CLOUDS BELOW 12,000 FEET WITH NO
SIGNIFICANT WEATHER AND/OR OBSTRUCTIONS TO VISIBILITY.

TXZ118-119-290600-
DALLAS/FORT WORTH METROPLEX

CITY           SKY/WX    TMP DP  RH WIND       PRES   REMARKS
DFW AIRPORT    PTCLDY    64  41  42 S14       30.02R
DALLAS LOVE    CLEAR     70  39  32 SW10      30.02R
FTW MEACHAM    CLEAR     67  40  37 S14G23    30.02R
DAL-EXECUTIVE  CLEAR     69  39  33 S9G17     30.03R
FTW-ALLIANCE   PTCLDY    66  38  35 SW13G23   30.02R
FTW-SPINKS     CLEAR     66  39  36 S13G18    30.05R
ARLINGTON      CLEAR     65  39  38 S9        30.03R
GRAND PRAIRIE  CLEAR     64  44  47 S10G16    30.05R
ADDISON        CLEAR     70  39  32 S15       30.04R
MESQUITE       CLEAR     58  41  54 S9        30.04R
LANCASTER      CLEAR     63  40  43 S9        30.05R
$$

TXZ091>094-102>105-117-120-121-131>134-290600-
NORTH CENTRAL TEXAS

CITY           SKY/WX    TMP DP  RH WIND       PRES   REMARKS
SHRMAN/DENISON CLEAR     65  45  47 S17       30.01R
GAINESVILLE    CLEAR     61  42  49 S9        30.02S
BOWIE          CLEAR     66  42  42 W5        30.04R
BRIDGEPORT     PTCLDY    64  43  46 SW8       30.03R
DECATUR        CLEAR     65  38  37 SW8       30.03R
DENTON         PTCLDY    61  40  45 SW7       30.02R
MCKINNEY       CLEAR     66  41  40 S13       30.02R
GREENVILLE     CLEAR     66  37  34 S13G18    30.04R
ROCKWALL       CLEAR     64  43  46 S14G22    30.03R
TERRELL        CLEAR     65  42  43 S12       30.05R
WAXAHACHIE     CLEAR     65  42  43 S16       30.05R
CLEBURNE       CLEAR     61  41  48 S10       30.07R
GRANBURY       CLEAR     68  38  33 S12       30.05R
$$

TXZ083>090-098>101-113>116-127>130-139>142-154-155-290600-
WESTERN NORTH TEXAS

CITY           SKY/WX    TMP DP  RH WIND       PRES   REMARKS
WICHITA FALLS  CLEAR     59  39  47 NW12      30.02R
WF-KICKAPOO    CLEAR     56  29  36 NW8       30.04R
VERNON         CLEAR     59  29  32 NW3       30.05R
ABILENE        CLEAR     64  44  48 SW14      30.07R
ABILENE-DYESS  PTCLDY    65  45  49 SW13      30.06R
BRECKENRIDGE   CLEAR     61  42  49 SW5       30.04R
GRAHAM         CLEAR     61  46  57 S5        30.01R
MINERAL WELLS  CLEAR     60  39  45 SE5       30.02R
STEPHENVILLE   CLEAR     63  38  40 S7        30.08R
COMANCHE       CLEAR     65  39  38 SW18      30.07R
BROWNWOOD      CLEAR     59  37  44 S6        30.09R
COLEMAN        PTCLDY    63  42  46 SW12      30.09R
BRADY          CLEAR     63  37  39 S6        30.11R
$$

TXZ143>147-156>162-174-175-290600-
CENTRAL TEXAS

CITY           SKY/WX    TMP DP  RH WIND       PRES   REMARKS
WACO           CLEAR     62  42  47 S13       30.08R
WACO-TSTC      CLEAR     59  43  55 S9        30.08
WACO-MCGREGOR  CLEAR     61  39  44 S13       30.10R
HILLSBORO      CLEAR     61  42  50 S13       30.07R
CORSICANA      CLEAR     63  42  46 S13       30.08R
MEXIA          CLEAR     62  45  53 S13       30.08S
HEARNE         CLEAR     57  47  69 SE7       30.13R
CAMERON        CLEAR     61  49  65 S9        30.11R
TEMPLE         CLEAR     55  39  54 S10       30.10R
KILLEEN        CLEAR     54  40  60 S8        30.10S
FORT HOOD      CLEAR     64  39  40 S9        30.10R
GATESVILLE     FAIR      63  39  42 CALM      30.11R
HAMILTON       CLEAR     64  38  39 S16G22    30.08S
LAMPASAS       PTCLDY    62  40  44 S3        30.09S
$$

TXZ095>097-106>112-122>126-135>138-148>153-164>167-290600-
EAST TEXAS

CITY           SKY/WX    TMP DP  RH WIND       PRES   REMARKS
PARIS          PTCLDY    59  41  51 SW6       30.04R
SULPHUR SPRNGS CLEAR     64  42  45 S12       30.06R
MOUNT PLEASANT FAIR      62  45  52 S8        30.06R
GILMER         CLEAR     62  47  58 S8G16     30.06R
MINEOLA        CLEAR     66  39  37 S10G18    30.06R
TYLER          CLEAR     63  47  55 S17       30.07R
LONGVIEW       CLEAR     61  47  59 S13       30.08R
MARSHALL       CLEAR     61  45  56 S9        30.10R
ATHENS         CLEAR     63  41  45 S8        30.08R
PALESTINE      CLEAR     62  46  54 SE8       30.11S
JACKSONVILLE   CLEAR     60  49  66 CALM      30.12R
HENDERSON      CLEAR     61  48  62 S7        30.11R
NACOGDOCHES    CLEAR     55  45  67 S7        30.14R
LUFKIN         CLEAR     58  49  72 S7        30.13R
$$

SUPPLEMENTAL OBSERVATIONS (CENTRAL)

CITY           SKY/WX    TMP DP  RH WIND       PRES   REMARKS
LAKE TEXOMA      N/A     70  41  35 SW18        N/A
PAT MAYSE LAKE   N/A     63  41  45 S9          N/A
GREENVILLE       N/A     64  41  42 S9G17       N/A
CEDAR HILL       N/A     66  39  37 S10G18      N/A
ATHENS           N/A     64  41  42 S13         N/A
PALESTINE        N/A     61  46  59 S6          N/A
LAKE LIMESTONE   N/A     61  45  55 S8          N/A
MCGREGOR         N/A     57  41  54 S8          N/A
TEMPLE           N/A     57  41  54 S7          N/A
$$

SUPPLEMENTAL OBSERVATIONS (WEST)

CITY           SKY/WX    TMP DP  RH WIND       PRES   REMARKS
MILLERS CREEK    N/A     55  45  67 SW3         N/A
POSSUM KINGDOM   N/A     64  36  34 SW8         N/A
COMANCHE         N/A     64  34  32 SW17G24     N/A
HAMBY            N/A     57  43  58 S7          N/A
IVIE RESERVOIR   N/A     63  37  39 S2G13       N/A
COLORADO BEND    N/A     63  37  39 S8          N/A
$$

SUPPLEMENTAL OBSERVATIONS (EAST)

CITY           SKY/WX    TMP DP  RH WIND       PRES   REMARKS
CLARKSVILLE      N/A     61  45  55 S8          N/A
TEXARKANA        N/A     61  43  51 S3          N/A
LINDEN           N/A     63  45  51 SW5         N/A
CADDO LAKE       N/A     61  43  51 S3          N/A
GILMER           N/A     63  46  55 SW8         N/A
HENDERSON        N/A     61  46  59 S13         N/A
LUFKIN           N/A     55  48  76 MISG        N/A
N SABINE NF      N/A     55  46  71 MISG        N/A
S SABINE NF      N/A     54  48  82 SE3         N/A
$$

SUPPLEMENTAL OBSERVATIONS ARE A COLLECTION OF AUTOMATED INSTRUMENTS
THAT ARE MAINTAINED BY A VARIETY OF FEDERAL AND STATE AGENCIES.
CERTAIN ELEMENTS...SUCH AS HUMIDITY VALUES AND SUSTAINED WIND
SPEEDS...MAY BE APPROXIMATED.



USA.gov is the U.S. government's official web portal to all federal, state and local government web resources and services.